FENGYUN 3C 1 39260U 13052A 21056.90357373 -.00000002 00000-0 20159-4 0 9996 2 39260 98.5158 102.6396 0010645 201.2194 158.8534 14.15859864384482 CZ-4C R/B 1 39261U 13052B 21056.44548293 .00000008 00000-0 19889-4 0 9992 2 39261 98.9377 215.6355 0031907 5.4307 354.7216 14.33219944388098 CZ-4C DEB 1 43408U 13052C 21056.54722437 .00000215 00000-0 20297-3 0 9999 2 43408 98.8132 323.8241 0223113 99.7060 262.9371 13.79765210365632 CZ-4C DEB 1 43409U 13052D 21056.45662724 .00000153 00000-0 15882-3 0 9997 2 43409 98.7423 300.3236 0240625 134.4299 227.6822 13.75813095364636 CZ-4C DEB 1 43410U 13052E 21056.43852037 .00000104 00000-0 12215-3 0 9998 2 43410 98.8804 321.5643 0246775 177.7878 182.4426 13.74383491364194 CZ-4C DEB 1 43411U 13052F 21056.47678848 -.00000012 00000-0 12965-4 0 9991 2 43411 98.6272 148.6169 0003958 307.8140 52.2682 14.26486764378081